Mobridge, SD

2:57 AM CST on December 04, 2016 (GMT -0600)
Mobridge Municipal

Weather History for KMBG - November, 2013

Change the Weather History Date:

Saturday, November 2, 2013

  Actual Average Record
Temperature  
Mean Temperature 39 °F 40 °F  
Max Temperature 55 °F 51 °F 78 °F (1917)
Min Temperature 22 °F 28 °F -1 °F (1951)
Degree Days  
Heating Degree Days 26 25  
Month to date heating degree days 54 50  
Since 1 July heating degree days 816 824  
Cooling Degree Days 0 0  
Month to date cooling degree days 0 0  
Year to date cooling degree days 700 644  
Moisture  
Dew Point 29 °F    
Average Humidity 65    
Maximum Humidity 92    
Minimum Humidity 38    
Precipitation  
Precipitation 0.00 in 0.04 in 1.46 in (1956)
Month to date precipitation T 0.07  
Year to date precipitation 22.88 17.02  
Snow  
Snow 0.00 in - - ()
Month to date snowfall 0.0  
Since 1 July snowfall 1.0  
Snow Depth 0.00 in    
Sea Level Pressure  
Sea Level Pressure 30.01 in    
Wind  
Wind Speed 8 mph (SE)    
Max Wind Speed 26 mph    
Max Gust Speed 38 mph    
Visibility 10 miles    
Events      
T = Trace of Precipitation, MM = Missing Value Source: NWS Daily Summary

Daily Weather History Graph

Daily Weather History Graph

Search for Another Location

Airport or City:

Trip Planner

Search our weather history database for the weather conditions in past years. The results will help you decide how hot, cold, wet, or windy it might be!

Date:

Astronomy

Nov. 02, 2013 Rise Set
Actual Time 8:23 AM CDT 6:26 PM CDT
Civil Twilight 7:51 AM CDT 6:57 PM CDT
Nautical Twilight 7:16 AM CDT 7:32 PM CDT
Astronomical Twilight 6:42 AM CDT 8:07 PM CDT
Moon 7:20 AM CDT (11/2) 6:00 PM CDT (11/2)
Length of Visible Light 11h 05m
Length of Day
10h 03m
Waning Crescent, 1% of the Moon is Illuminated
Nov 2
Waning Crescent
Nov 3
New
Nov 9
First Quarter
Nov 17
Full
Nov 25
Last Quarter

Hourly Weather History & Observations

Time (CDT) Temp. Windchill Dew Point Humidity Pressure Visibility Wind Dir Wind Speed Gust Speed Precip Events Conditions
12:52 AM 32.0 °F 25.6 °F 27.0 °F 82% 30.06 in 10.0 mi NW 6.9 mph - N/A   Clear
1:52 AM 28.9 °F 25.2 °F 26.1 °F 89% 30.07 in 10.0 mi NW 3.5 mph - N/A   Clear
2:52 AM 26.1 °F - 25.0 °F 96% 30.08 in 10.0 mi Calm Calm - N/A   Clear
3:52 AM 27.0 °F 21.6 °F 24.1 °F 89% 30.08 in 10.0 mi NNE 4.6 mph - N/A   Clear
4:52 AM 28.9 °F 22.8 °F 25.0 °F 85% 30.09 in 10.0 mi NNW 5.8 mph - N/A   Clear
5:52 AM 28.0 °F 20.0 °F 25.0 °F 88% 30.09 in 10.0 mi NNW 8.1 mph - N/A   Clear
6:52 AM 27.0 °F 21.6 °F 24.1 °F 89% 30.10 in 10.0 mi North 4.6 mph - N/A   Clear
7:52 AM 26.1 °F - 25.0 °F 96% 30.11 in 10.0 mi Calm Calm - N/A   Clear
8:52 AM 25.0 °F - 23.0 °F 92% 30.10 in 10.0 mi Calm Calm - N/A   Clear
9:52 AM 32.0 °F - 28.9 °F 88% 30.12 in 10.0 mi Calm Calm - N/A   Clear
10:52 AM 37.9 °F - 30.9 °F 76% 30.11 in 10.0 mi Calm Calm - N/A   Clear
11:52 AM 41.0 °F 38.0 °F 32.0 °F 70% 30.10 in 10.0 mi SSE 4.6 mph - N/A   Clear
12:52 PM 46.0 °F 42.5 °F 32.0 °F 58% 30.08 in 10.0 mi South 6.9 mph - N/A   Clear
1:52 PM 51.1 °F - 33.1 °F 50% 30.05 in 10.0 mi Variable 4.6 mph - N/A   Clear
2:52 PM 54.0 °F - 33.1 °F 45% 30.01 in 10.0 mi South 8.1 mph - N/A   Clear
3:52 PM 55.0 °F - 30.9 °F 40% 29.98 in 10.0 mi SSE 12.7 mph - N/A   Clear
4:52 PM 53.1 °F - 28.0 °F 38% 29.95 in 10.0 mi SSE 13.8 mph - N/A   Clear
5:52 PM 50.0 °F - 33.1 °F 52% 29.92 in 10.0 mi SE 6.9 mph - N/A   Clear
6:52 PM 44.1 °F 39.0 °F 33.1 °F 65% 29.91 in 10.0 mi ESE 9.2 mph - N/A   Clear
7:52 PM 44.1 °F 38.1 °F 30.0 °F 58% 29.90 in 10.0 mi SE 11.5 mph - N/A   Clear
8:52 PM 44.1 °F 37.7 °F 28.9 °F 55% 29.88 in 10.0 mi SE 12.7 mph - N/A   Clear
9:52 PM 43.0 °F 34.8 °F 28.9 °F 58% 29.84 in 10.0 mi SE 18.4 mph - N/A   Clear
10:52 PM 42.1 °F 33.9 °F 28.9 °F 60% 29.81 in 10.0 mi SE 17.3 mph - N/A   Clear
11:52 PM 44.1 °F 35.7 °F 28.9 °F 55% 29.75 in 10.0 mi SE 20.7 mph - N/A   Clear